• Join FlightAware (Why Join?)
  • Login
  • US Flag 
03:02AM EDT


 

Airport Tracker/Info


-or-


 

Live Flight TrackerFlight Track Log ✈ N989WU ✈ 17-Sep-2013 ✈ KCWV - KAPF

Flight Track Log - Related Links

Times and Time Zones

All times are in EDT time to prevent confusion due to time zone crossing. See the N989WU flight status page for this flight to view local times or setup timezone preferences in your user account.

Time Position Orientation Groundspeed Altitude Reporting Facility
EDT Latitude Longitude Course Direction KTS MPH feet Rate Location/Type
08:30AM 32.1144 -81.8647 205° Southwest 100 115 2,400  Level Jacksonville Center
08:31AM 32.0914 -81.8772 205° Southwest 100 115 2,900 480 Climbing Jacksonville Center
08:32AM 32.0708 -81.8897 207° Southwest 100 115 3,400 540 Climbing Jacksonville Center
08:33AM 32.0500 -81.9072 215° Southwest 100 115 4,000 540 Climbing Jacksonville Center
08:34AM 32.0250 -81.9247 211° Southwest 100 115 4,500 480 Climbing Jacksonville Center
08:35AM 32.0022 -81.9397 209° Southwest 100 115 5,000 420 Climbing Jacksonville Center
08:36AM 31.9792 -81.9497 200° South 100 115 5,400 360 Climbing Jacksonville Center
08:37AM 31.9564 -81.9522 185° South 93 107 5,800 360 Climbing Jacksonville Center
08:38AM 31.9272 -81.9503 177° South 93 107 6,200 360 Climbing Jacksonville Center
08:39AM 31.9019 -81.9456 171° South 98 113 6,600 300 Climbing Jacksonville Center
08:40AM 31.8747 -81.9433 176° South 98 113 6,900 300 Climbing Jacksonville Center
08:41AM 31.8519 -81.9461 186° South 103 119 7,300 300 Climbing Jacksonville Center
08:42AM 31.8247 -81.9439 176° South 103 119 7,600 300 Climbing Jacksonville Center
08:43AM 31.7956 -81.9467 185° South 103 119 7,900 120 Climbing Jacksonville Center
08:44AM 31.7664 -81.9469 180° South 103 119 7,900  Level Jacksonville Center
08:45AM 31.7372 -81.9497 185° South 103 119 7,900  Level Jacksonville Center
08:46AM 31.7119 -81.9500 181° South 103 119 7,900  Level Jacksonville Center
08:47AM 31.6808 -81.9550 188° South 103 119 8,000  Climbing Jacksonville Center
08:48AM 31.6536 -81.9553 180° South 103 119 7,900 -120 Descending Jacksonville Center
08:49AM 31.6244 -81.9581 185° South 103 119 7,800 -60 Descending Jacksonville Center
08:50AM 31.6014 -81.9583 181° South 103 119 7,800  Level Jacksonville Center
08:51AM 31.5744 -81.9611 185° South 103 119 7,800  Level Jacksonville Center
08:52AM 31.5492 -81.9614 181° South 98 113 7,900 60 Climbing Jacksonville Center
08:53AM 31.5222 -81.9617 181° South 98 113 8,000  Climbing Jacksonville Center
08:54AM 31.4950 -81.9594 176° South 98 113 7,900 -60 Descending Jacksonville Center
08:55AM 31.4719 -81.9572 175° South 104 120 7,900  Level Jacksonville Center
08:56AM 31.4386 -81.9550 177° South 104 120 7,900 -60 Level Jacksonville Center
08:57AM 31.4094 -81.9531 177° South 104 120 7,800 -60 Descending Jacksonville Center
08:58AM 31.3822 -81.9483 172° South 104 120 7,800 60 Level Jacksonville Center
08:59AM 31.3572 -81.9486 181° South 99 114 8,000 60 Climbing Jacksonville Center
09:00AM 31.3300 -81.9489 180° South 104 120 8,000  Level Jacksonville Center
09:01AM 31.2986 -81.9467 177° South 104 120 8,000  Level Jacksonville Center
09:02AM 31.2714 -81.9469 180° South 99 114 8,000  Level Jacksonville Center
09:03AM 31.2464 -81.9472 181° South 99 114 8,100  Climbing Jacksonville Center
09:04AM 31.2214 -81.9500 185° South 99 114 8,100  Level Jacksonville Center
09:05AM 31.1942 -81.9503 181° South 99 114 8,100 -120 Level Jacksonville Center
09:05AM 31.1775 -81.9503 180° South 98 113 8,000  Descending Jacksonville Center
09:06AM 31.1608 -81.9506 181° South 105 121 8,100 -120 Climbing Jacksonville Center
09:06AM 31.1483 -81.9531 190° South 102 117 7,900 -120 Descending Jacksonville Center
09:07AM 31.1336 -81.9533 181° South 105 121 8,000  Climbing Jacksonville Center
09:07AM 31.1211 -81.9583 199° South 104 120 7,900  Descending Jacksonville Center
09:08AM 31.1086 -81.9561 171° South 105 121 8,000  Climbing Jacksonville Center
09:08AM 31.0919 -81.9586 187° South 104 120 7,900  Descending Jacksonville Center
09:09AM 31.0753 -81.9586 180° South 105 121 8,000 -120 Climbing Jacksonville Center
09:09AM 31.0628 -81.9614 191° South 102 117 7,800 -120 Descending Jacksonville Center
09:10AM 31.0481 -81.9639 188° South 105 121 7,900  Climbing Jacksonville Center
09:11AM 31.0336 -81.9639 180° South 101 116 7,800  Descending Jacksonville Center
09:11AM 31.0211 -81.9667 191° South 105 121 7,900 -120 Climbing Jacksonville Center
09:12AM 31.0064 -81.9667 180° South 99 114 7,700  Descending Jacksonville Center
09:12AM 30.9939 -81.9692 190° South 105 121 7,900 180 Climbing Jacksonville Center
09:13AM 30.9794 -81.9717 188° South 98 113 7,900 60 Level Jacksonville Center
09:13AM 30.9669 -81.9744 191° South 105 121 8,000  Climbing Jacksonville Center
09:14AM 30.9542 -81.9719 170° South 90 104 7,900  Descending Jacksonville Center
09:14AM 30.9417 -81.9769 199° South 105 121 8,000 60 Climbing Jacksonville Center
09:15AM 30.9272 -81.9772 181° South 95 109 8,000 60 Level Jacksonville Center
09:15AM 30.9147 -81.9797 190° South 105 121 8,100  Climbing Jacksonville Center
09:16AM 30.8981 -81.9822 187° South 101 116 8,000 -180 Descending Jacksonville Center
09:17AM 30.8708 -81.9825 181° South 101 116 7,900 -60 Descending Jacksonville Center
09:18AM 30.8439 -81.9900 193° South 98 113 7,900 -60 Level Jacksonville Center
09:19AM 30.8144 -81.9928 185° South 99 114 7,800 -60 Descending Jacksonville Center
09:20AM 30.7894 -81.9978 190° South 96 110 7,800  Level Jacksonville Center
09:21AM 30.7644 -82.0028 190° South 91 105 7,900  Climbing Jacksonville Center
09:22AM 30.7394 -82.0103 194° South 91 105 7,900  Level Jacksonville Center
09:23AM 30.7125 -82.0156 190° South 91 105 8,000  Climbing Jacksonville Center
09:24AM 30.6875 -82.0231 194° South 91 105 8,000  Level Jacksonville Center
09:25AM 30.6625 -82.0281 190° South 93 107 8,000  Level Jacksonville Center
09:26AM 30.6372 -82.0331 190° South 93 107 8,000 -60 Level Jacksonville Center
09:27AM 30.6103 -82.0381 189° South 95 109 7,900 -60 Descending Jacksonville Center
09:28AM 30.5811 -82.0408 185° South 106 122 7,900 -60 Level Jacksonville Center
09:29AM 30.5561 -82.0411 181° South 92 106 7,800 -60 Descending Jacksonville Center
09:30AM 30.5267 -82.0461 188° South 96 110 7,800  Level Jacksonville Center
09:31AM 30.5017 -82.0486 185° South 98 113 7,800  Level Jacksonville Center
09:32AM 30.4747 -82.0489 181° South 96 110 7,800  Level Jacksonville Center
09:33AM 30.4475 -82.0539 189° South 96 110 7,800 60 Level Jacksonville Center
09:34AM 30.4225 -82.0592 190° South 87 100 8,000 60 Climbing Jacksonville Center
09:35AM 30.3953 -82.0642 189° South 92 106 8,000 -120 Level Jacksonville Center
09:36AM 30.3683 -82.0644 181° South 99 114 7,800 -360 Descending Jacksonville Center
09:37AM 30.3389 -82.0647 180° South 117 135 7,300 -420 Descending Jacksonville Center
09:38AM 30.3036 -82.0650 180° South 117 135 7,000 -240 Descending Jacksonville Center
09:39AM 30.2742 -82.0628 176° South 107 123 6,900 -60 Descending Jacksonville Center
09:40AM 30.2472 -82.0653 185° South 94 108 6,900  Level Jacksonville Center
09:41AM 30.2200 -82.0706 190° South 93 107 6,900  Level Jacksonville Center
09:42AM 30.1928 -82.0706 180° South 93 107 6,900  Level Jacksonville Center
09:43AM 30.1678 -82.0758 190° South 93 107 7,000  Climbing Jacksonville Center
09:44AM 30.1408 -82.0783 185° South 99 114 6,900 -60 Descending Jacksonville Center
09:45AM 30.1136 -82.0808 185° South 101 116 6,900  Level Jacksonville Center
09:46AM 30.0864 -82.0811 181° South 100 115 6,900 -60 Level Jacksonville Center
09:47AM 30.0553 -82.0864 188° South 101 116 6,800 -60 Descending Jacksonville Center
09:48AM 30.0281 -82.0864 180° South 101 116 6,800  Level Jacksonville Center
09:49AM 29.9989 -82.0914 188° South 101 116 6,800  Level Jacksonville Center
09:50AM 29.9717 -82.0917 181° South 98 113 6,900  Climbing Jacksonville Center
09:51AM 29.9447 -82.0967 189° South 98 113 6,900  Level Jacksonville Center
09:52AM 29.9153 -82.1017 188° South 98 113 6,900  Level Jacksonville Center
09:53AM 29.8883 -82.1019 181° South 99 114 6,900  Level Jacksonville Center
09:54AM 29.8611 -82.1069 189° South 98 113 6,900  Level Jacksonville Center
09:55AM 29.8342 -82.1097 185° South 99 114 6,900  Level Jacksonville Center
09:56AM 29.8047 -82.1147 188° South 99 114 7,000  Climbing Jacksonville Center
09:57AM 29.7756 -82.1197 188° South 99 114 7,000  Level Jacksonville Center
09:58AM 29.7486 -82.1222 185° South 99 114 7,100  Climbing Jacksonville Center
09:59AM 29.7214 -82.1297 193° South 101 116 7,100  Level Jacksonville Center
10:00AM 29.6900 -82.1300 180° South 102 117 7,100 -60 Level Jacksonville Center
10:01AM 29.6650 -82.1350 190° South 99 114 7,000 -60 Descending Jacksonville Center
10:02AM 29.6358 -82.1350 180° South 100 115 7,000  Level Jacksonville Center
10:03AM 29.6067 -82.1378 185° South 100 115 7,000  Level Jacksonville Center
10:04AM 29.5794 -82.1403 185° South 100 115 7,000 -60 Level Jacksonville Center
10:05AM 29.5503 -82.1406 180° South 101 116 6,900 -60 Descending Jacksonville Center
10:06AM 29.5231 -82.1431 185° South 100 115 6,900  Level Jacksonville Center
10:07AM 29.4961 -82.1433 181° South 97 112 6,900  Level Jacksonville Center
10:08AM 29.4689 -82.1436 181° South 97 112 6,900  Level Jacksonville Center
10:09AM 29.4397 -82.1461 184° South 98 113 6,900  Level Jacksonville Center
10:10AM 29.4125 -82.1489 185° South 97 112 6,900  Level Jacksonville Center
10:11AM 29.3875 -82.1489 180° South 97 112 6,900  Level Jacksonville Center
10:12AM 29.3583 -82.1539 188° South 98 113 6,900  Level Jacksonville Center
10:13AM 29.3333 -82.1542 181° South 91 105 7,000 60 Climbing Jacksonville Center
10:14AM 29.3061 -82.1497 172° South 93 107 7,100  Climbing Jacksonville Center
10:15AM 29.2789 -82.1497 180° South 95 109 7,100  Level Jacksonville Center
10:16AM 29.2519 -82.1475 176° South 97 112 7,200  Climbing Jacksonville Center
10:17AM 29.2247 -82.1456 176° South 98 113 7,100 -60 Descending Jacksonville Center
10:18AM 29.1975 -82.1456 180° South 99 114 7,100  Level Jacksonville Center
10:19AM 29.1683 -82.1433 176° South 102 117 7,100  Level Jacksonville Center
10:21AM 29.1392 -82.1436 180° South 101 116 7,100  Level Jacksonville Center
10:22AM 29.1097 -82.1367 168° South 101 116 7,100  Level Jacksonville Center
10:23AM 29.0828 -82.1394 185° South 102 117 7,100 -60 Level Jacksonville Center
10:24AM 29.0533 -82.1397 180° South 104 120 7,000 -60 Descending Jacksonville Center
10:25AM 29.0242 -82.1397 180° South 105 121 7,000 -60 Level Jacksonville Center
10:26AM 28.9931 -82.1425 184° South 104 120 6,900 -60 Descending Jacksonville Center
10:27AM 28.9636 -82.1403 176° South 105 121 6,900  Level Jacksonville Center
10:28AM 28.9344 -82.1428 184° South 106 122 6,900  Level Jacksonville Center
10:29AM 28.9053 -82.1383 172° South 107 123 6,900  Level Jacksonville Center
10:30AM 28.8761 -82.1386 180° South 100 115 6,900  Level Jacksonville Center
10:31AM 28.8511 -82.1364 176° South 92 106 7,000 60 Climbing Jacksonville Center
10:32AM 28.8239 -82.1342 176° South 94 108 7,100 -60 Climbing Jacksonville Center
10:33AM 28.7833 -82.1333 179° South 104 120 6,900 -120 Descending Tampa TRACON
10:34AM 28.7500 -82.1167 156° South 107 123 6,900 -60 Level Tampa TRACON
10:35AM 28.7167 -82.1167 180° South 101 116 6,800  Descending Tampa TRACON
10:36AM 28.7000 -82.1167 180° South 98 113 6,900 60 Climbing Tampa TRACON
10:37AM 28.6667 -82.1167 180° South 93 107 7,000  Climbing Tampa TRACON
10:38AM 28.6500 -82.1167 180° South 96 110 7,000  Level Tampa TRACON
10:39AM 28.6167 -82.1167 180° South 105 121 7,000 -60 Level Tampa TRACON
10:40AM 28.5833 -82.1000 156° South 110 127 6,900 -120 Descending Tampa TRACON
10:41AM 28.5500 -82.1000 180° South 111 128 6,800 -60 Descending Tampa TRACON
10:42AM 28.5167 -82.1000 180° South 99 114 6,800  Level Tampa TRACON
10:43AM 28.5000 -82.1000 180° South 97 112 6,800  Level Tampa TRACON
10:44AM 28.4667 -82.0833 156° South 99 114 6,800  Level Tampa TRACON
10:45AM 28.4500 -82.0833 180° South 99 114 6,800  Level Tampa TRACON
10:46AM 28.4167 -82.0833 180° South 98 113 6,800  Level Tampa TRACON
10:47AM 28.3833 -82.0833 180° South 99 114 6,800  Level Tampa TRACON
10:48AM 28.3667 -82.0833 180° South 99 114 6,900  Climbing Tampa TRACON
10:49AM 28.3333 -82.0833 180° South 96 110 6,900  Level Tampa TRACON
10:50AM 28.3000 -82.0667 156° South 98 113 6,900  Level Tampa TRACON
10:51AM 28.2833 -82.0667 180° South 96 110 6,900  Level Tampa TRACON
10:52AM 28.2500 -82.0667 180° South 94 108 7,000  Climbing Tampa TRACON
10:53AM 28.2333 -82.0500 139° Southeast 98 113 6,900  Descending Tampa TRACON
10:54AM 28.2000 -82.0500 180° South 99 114 7,000  Climbing Tampa TRACON
10:55AM 28.1667 -82.0500 180° South 96 110 6,900 -60 Descending Tampa TRACON
10:56AM 28.1500 -82.0333 139° Southeast 98 113 6,900  Level Tampa TRACON
10:57AM 28.1167 -82.0333 180° South 98 113 6,900  Level Tampa TRACON
10:58AM 28.1000 -82.0333 180° South 96 110 6,900  Level Tampa TRACON
10:59AM 28.0667 -82.0167 156° South 97 112 6,900 -60 Level Tampa TRACON
11:00AM 28.0333 -82.0167 180° South 99 114 6,800  Descending Tampa TRACON
11:01AM 28.0167 -82.0000 139° Southeast 88 101 6,900  Climbing Tampa TRACON
11:02AM 28.0000 -81.9833 139° Southeast 86 99 6,900  Level Tampa TRACON
11:03AM 27.9667 -81.9833 180° South 91 105 7,000  Climbing Tampa TRACON
11:04AM 27.9500 -81.9667 139° Southeast 97 112 6,900 -60 Descending Tampa TRACON
11:06AM 27.8989 -81.9711 184° South 76 87 6,900  Level Miami Center
11:07AM 27.8717 -81.9722 182° South 89 102 7,000  Climbing Miami Center
11:08AM 27.8444 -81.9711 178° South 95 109 7,000  Level Miami Center
11:09AM 27.8214 -81.9725 183° South 101 116 7,000  Level Miami Center
11:10AM 27.7903 -81.9686 174° South 101 116 7,000 -60 Level Miami Center
11:11AM 27.7631 -81.9722 187° South 101 116 6,900 -60 Descending Miami Center
11:12AM 27.7339 -81.9756 186° South 101 116 6,900  Level Miami Center
11:13AM 27.7064 -81.9814 191° South 101 116 6,900  Level Miami Center
11:14AM 27.6814 -81.9825 182° South 101 116 6,900  Level Miami Center
11:15AM 27.6542 -81.9861 187° South 106 122 6,900  Level Miami Center
11:16AM 27.6269 -81.9869 182° South 106 122 6,900  Level Miami Center
11:17AM 27.6017 -81.9906 187° South 106 122 6,900  Level Miami Center
11:18AM 27.5747 -81.9917 182° South 106 122 6,900  Level Miami Center
11:19AM 27.5497 -81.9906 178° South 101 116 6,900  Level Miami Center
11:20AM 27.5203 -81.9917 182° South 101 116 6,900  Level Miami Center
11:21AM 27.4953 -81.9931 183° South 101 116 6,900  Level Miami Center
11:22AM 27.4681 -81.9917 177° South 101 116 7,000  Climbing Miami Center
11:23AM 27.4431 -81.9906 178° South 101 116 7,000  Level Miami Center
11:24AM 27.4181 -81.9894 178° South 101 116 7,000  Level Miami Center
11:25AM 27.3931 -81.9883 178° South 101 116 7,000 -60 Level Miami Center
11:26AM 27.3658 -81.9919 187° South 101 116 6,900 -60 Descending Miami Center
11:27AM 27.3386 -81.9953 186° South 101 116 6,900  Level Miami Center
11:28AM 27.3136 -81.9989 187° South 101 116 6,900  Level Miami Center
11:29AM 27.2864 -82.0000 182° South 101 116 6,900  Level Miami Center
11:30AM 27.2611 -82.0011 182° South 101 116 7,000  Climbing Miami Center
11:31AM 27.2361 -82.0025 183° South 101 116 7,000  Level Miami Center
11:32AM 27.2092 -81.9989 173° South 101 116 7,000  Level Miami Center
11:33AM 27.1819 -82.0000 182° South 101 116 7,000 -60 Level Miami Center
11:34AM 27.1550 -81.9989 178° South 101 116 6,900 -60 Descending Miami Center
11:35AM 27.1275 -82.0022 186° South 101 116 6,900  Level Miami Center
11:36AM 27.1025 -82.0036 183° South 101 116 7,000  Climbing Miami Center
11:37AM 27.0756 -82.0022 177° South 101 116 6,900 -60 Descending Miami Center
11:38AM 27.0503 -82.0036 183° South 101 116 6,900  Level Miami Center
11:40AM 27.0195 -81.9989 172° South  Level FlightAware Approximate
11:47AM 26.8301 -81.9580 165° South  Level FlightAware Approximate
11:48AM 26.8036 -81.9503 165° South  Level FlightAware Approximate
11:49AM 26.7770 -81.9425 165° South  Level FlightAware Approximate
11:50AM 26.7505 -81.9348 165° South  Level FlightAware Approximate
11:51AM 26.7240 -81.9270 165° South  Level FlightAware Approximate
11:52AM 26.6974 -81.9193 165° South  Level FlightAware Approximate
11:53AM 26.6709 -81.9116 165° South  Level FlightAware Approximate
11:54AM 26.6443 -81.9038 165° South  Level FlightAware Approximate
11:55AM 26.6178 -81.8961 165° South  Level FlightAware Approximate
11:56AM 26.5913 -81.8884 165° South  Level FlightAware Approximate
11:57AM 26.5647 -81.8806 165° South  Level FlightAware Approximate
11:58AM 26.5382 -81.8729 165° South  Level FlightAware Approximate
11:59AM 26.5115 -81.8656 170° South  Level FlightAware Approximate
12:00PM 26.4845 -81.8602 170° South  Level FlightAware Approximate
12:01PM 26.4575 -81.8548 170° South  Level FlightAware Approximate
12:02PM 26.4306 -81.8491 163° South  Level FlightAware Approximate
12:03PM 26.4044 -81.8403 163° South  Level FlightAware Approximate
12:04PM 26.3781 -81.8316 163° South  Level FlightAware Approximate
12:05PM 26.3518 -81.8228 163° South  Level FlightAware Approximate
12:06PM 26.3254 -81.8144 166° South  Level FlightAware Approximate
12:07PM 26.2988 -81.8068 166° South  Level FlightAware Approximate
12:08PM 26.2723 -81.7992 166° South  Level FlightAware Approximate
12:09PM 26.2457 -81.7916 166° South  Level FlightAware Approximate
12:10PM 26.2191 -81.7840 166° South  Level FlightAware Approximate
12:11PM 26.1924 -81.7773 167° South  Level FlightAware Approximate
12:12PM 26.1656 -81.7706 167° South  Level FlightAware Approximate
12:13PM 26.1500 -81.7667 167° South  Level FlightAware Approximate
12:14PM 26.1524 -81.7756 167° South  Level Estimated
12:15PM 26.1524 -81.7756 167° South  Level Estimated
12:16PM 26.1524 -81.7756 167° South  Level Estimated
12:17PM 26.1524 -81.7756 167° South  Level Estimated
12:18PM 26.1524 -81.7756 167° South  Level Estimated
12:19PM 26.1524 -81.7756 167° South  Level Estimated
12:20PM 26.1524 -81.7756 167° South  Level Estimated
12:21PM 26.1524 -81.7756 167° South  Level Estimated
12:22PM 26.1524 -81.7756 167° South  Level Estimated
12:23PM 26.1524 -81.7756 167° South  Level Estimated
12:24PM 26.1524 -81.7756 167° South  Level Estimated
12:25PM 26.1524 -81.7756 167° South  Level Estimated
12:26PM 26.1524 -81.7756 167° South  Level Estimated
12:27PM 26.1524 -81.7756 167° South  Level Estimated
12:28PM 26.1524 -81.7756 167° South  Level Estimated